This is the latest recevied weather packets stored in our database for station/object W8DRH-13. If no packets are shown the sender has not sent any weather packets the latest 10 day(s).
| Time | Temp. | Humidity | Pressure | Rain* | Wind** | Luminosity | Snow |
|---|---|---|---|---|---|---|---|
| 1778028977 | 9.44° C | 98% | 1006.1 hPa | 4.83 mm | - | 0 W/m² | - |
| 1778028673 | 10° C | 98% | 1006 hPa | 3.05 mm | - | 0 W/m² | - |
| 1778028370 | 10° C | 98% | 1005.9 hPa | 4.32 mm | - | 0 W/m² | - |
| 1778028067 | 10° C | 98% | 1005.8 hPa | 6.1 mm | - | 0 W/m² | - |
| 1778027763 | 10° C | 98% | 1005.9 hPa | 7.87 mm | - | 0 W/m² | - |
| 1778027459 | 10° C | 98% | 1005.9 hPa | 8.89 mm | - | 0 W/m² | - |
| 1778027155 | 10.56° C | 98% | 1005.6 hPa | 10.67 mm | - | 0 W/m² | - |
| 1778026851 | 10.56° C | 98% | 1005.4 hPa | 7.87 mm | - | 0 W/m² | - |
| 1778026548 | 10.56° C | 98% | 1005.5 hPa | 7.11 mm | - | 0 W/m² | - |
| 1778026245 | 11.11° C | 98% | 1005.4 hPa | 8.89 mm | - | 0 W/m² | - |
| 1778025942 | 11.67° C | 98% | 1005.2 hPa | 7.11 mm | - | 0 W/m² | - |
| 1778025640 | 12.22° C | 98% | 1005.3 hPa | 7.87 mm | - | 0 W/m² | - |
| 1778025338 | 12.22° C | 98% | 1005 hPa | 6.6 mm | - | 0 W/m² | - |
| 1778025034 | 12.22° C | 98% | 1004.8 hPa | 4.32 mm | - | 0 W/m² | - |
| 1778024731 | 12.22° C | 98% | 1004.7 hPa | 3.05 mm | - | 0 W/m² | - |
| 1778024428 | 12.22° C | 98% | 1004.5 hPa | 1.78 mm | - | 5 W/m² | - |
| 1778024125 | 12.22° C | 97% | 1004.8 hPa | 0 mm | - | 2 W/m² | - |
| 1778023823 | 12.22° C | 97% | 1004.6 hPa | 0 mm | - | 1 W/m² | - |
| 1778023521 | 12.22° C | 97% | 1004.9 hPa | 0 mm | - | 3 W/m² | - |
| 1778023218 | 12.22° C | 97% | 1004.9 hPa | 0 mm | - | 8 W/m² | - |
| 1778022915 | 12.22° C | 97% | 1005 hPa | 1.27 mm | - | 14 W/m² | - |
| 1778022614 | 12.22° C | 97% | 1005 hPa | 1.27 mm | - | 17 W/m² | - |
| 1778022310 | 12.22° C | 97% | 1005 hPa | 0 mm | - | 17 W/m² | - |
| 1778022007 | 12.22° C | 97% | 1005.1 hPa | 0 mm | - | 9 W/m² | - |
| 1778021704 | 12.22° C | 97% | 1005.3 hPa | 0 mm | - | 12 W/m² | - |
* Rain latest hour (hover to see other rain measurements)
** Current wind speed in m/s (hover to see current wind gust speed)